Time,TemperatureF,DewpointF,PressureIn,WindDirection,WindDirectionDegrees,WindSpeedMPH,WindSpeedGustMPH,Humidity,HourlyPrecipIn,Conditions,Clouds,dailyrainin,SoftwareType,DateUTC
2013-07-02 00:05:00,82.1,70.5,29.89,NNW,346,2.0,14.0,68,0.00,,,0.00,Wunderground v.1.15,2013-07-02 04:05:00,
2013-07-02 00:10:00,82.0,70.4,29.89,NW,323,3.0,3.0,68,0.00,,,0.00,Wunderground v.1.15,2013-07-02 04:10:00,
2013-07-02 00:15:00,81.9,70.7,29.89,NW,312,3.0,6.0,69,0.00,,,0.00,Wunderground v.1.15,2013-07-02 04:15:00,
2013-07-02 00:20:00,81.9,70.7,29.89,NNW,331,4.0,14.0,69,0.00,,,0.00,Wunderground v.1.15,2013-07-02 04:20:00,
2013-07-02 00:25:00,81.8,70.6,29.89,North,9,5.0,14.0,69,0.00,,,0.00,Wunderground v.1.15,2013-07-02 04:25:00,
2013-07-02 00:30:00,81.8,71.1,29.89,NW,321,4.0,14.0,70,0.00,,,0.00,Wunderground v.1.15,2013-07-02 04:30:00,
2013-07-02 00:40:00,81.6,70.9,29.89,NW,325,4.0,14.0,70,0.00,,,0.00,Wunderground v.1.15,2013-07-02 04:40:00,
2013-07-02 00:45:00,81.6,71.7,29.89,North,360,4.0,14.0,72,0.00,,,0.00,Wunderground v.1.15,2013-07-02 04:45:00,
2013-07-02 00:50:00,81.4,71.1,29.89,NNW,346,3.0,14.0,71,0.00,,,0.00,Wunderground v.1.15,2013-07-02 04:50:00,
2013-07-02 01:00:00,81.2,71.7,29.89,North,355,4.0,14.0,73,0.00,,,0.00,Wunderground v.1.15,2013-07-02 05:00:00,
2013-07-02 01:05:00,81.0,71.5,29.89,NNW,340,3.0,14.0,73,0.00,,,0.00,Wunderground v.1.15,2013-07-02 05:05:00,
2013-07-02 01:10:00,80.8,71.3,29.89,NW,323,3.0,3.0,73,0.00,,,0.00,Wunderground v.1.15,2013-07-02 05:10:00,
2013-07-02 01:20:00,80.8,72.1,29.89,North,355,2.0,2.0,75,0.00,,,0.00,Wunderground v.1.15,2013-07-02 05:20:00,
2013-07-02 01:25:00,81.0,72.3,29.89,North,9,4.0,10.0,75,0.00,,,0.00,Wunderground v.1.15,2013-07-02 05:25:00,
2013-07-02 01:35:00,81.2,72.1,29.89,North,11,9.0,14.0,74,0.00,,,0.00,Wunderground v.1.15,2013-07-02 05:35:00,
2013-07-02 01:40:00,81.1,72.0,29.89,North,360,8.0,8.0,74,0.00,,,0.00,Wunderground v.1.15,2013-07-02 05:40:00,
2013-07-02 01:50:00,81.1,72.8,29.89,North,5,6.0,14.0,76,0.00,,,0.00,Wunderground v.1.15,2013-07-02 05:50:00,
2013-07-02 01:55:00,81.1,72.8,29.89,NNE,26,6.0,14.0,76,0.00,,,0.00,Wunderground v.1.15,2013-07-02 05:55:00,
2013-07-02 02:00:00,81.1,72.8,29.89,NNE,22,4.0,14.0,76,0.00,,,0.00,Wunderground v.1.15,2013-07-02 06:00:00,
2013-07-02 02:10:00,81.2,72.9,29.89,North,350,8.0,8.0,76,0.00,,,0.00,Wunderground v.1.15,2013-07-02 06:10:00,
2013-07-02 02:15:00,81.4,72.7,29.89,North,9,8.0,14.0,75,0.00,,,0.00,Wunderground v.1.15,2013-07-02 06:15:00,
2013-07-02 02:25:00,81.3,72.6,29.88,North,5,8.0,14.0,75,0.00,,,0.00,Wunderground v.1.15,2013-07-02 06:25:00,
2013-07-02 02:30:00,81.1,72.0,29.88,North,360,9.0,9.0,74,0.00,,,0.00,Wunderground v.1.15,2013-07-02 06:30:00,
2013-07-02 02:35:00,81.1,72.4,29.88,North,5,10.0,10.0,75,0.00,,,0.00,Wunderground v.1.15,2013-07-02 06:35:00,
2013-07-02 02:40:00,81.1,73.2,29.88,North,360,9.0,14.0,77,0.00,,,0.00,Wunderground v.1.15,2013-07-02 06:40:00,
2013-07-02 02:50:00,81.1,72.4,29.88,North,355,8.0,14.0,75,0.00,,,0.00,Wunderground v.1.15,2013-07-02 06:50:00,
2013-07-02 02:55:00,81.2,72.5,29.88,North,5,9.0,14.0,75,0.00,,,0.00,Wunderground v.1.15,2013-07-02 06:55:00,
2013-07-02 03:05:00,81.1,72.0,29.88,North,5,8.0,14.0,74,0.00,,,0.00,Wunderground v.1.15,2013-07-02 07:05:00,
2013-07-02 03:10:00,81.0,72.3,29.88,North,5,9.0,9.0,75,0.00,,,0.00,Wunderground v.1.15,2013-07-02 07:10:00,
2013-07-02 03:20:00,80.9,72.6,29.88,North,11,9.0,14.0,76,0.00,,,0.00,Wunderground v.1.15,2013-07-02 07:20:00,
2013-07-02 03:25:00,80.9,72.6,29.88,North,9,8.0,14.0,76,0.00,,,0.00,Wunderground v.1.15,2013-07-02 07:25:00,
2013-07-02 03:35:00,80.9,72.6,29.88,NNE,12,8.0,11.0,76,0.00,,,0.00,Wunderground v.1.15,2013-07-02 07:35:00,
2013-07-02 03:40:00,81.0,73.1,29.88,NNE,16,9.0,14.0,77,0.00,,,0.00,Wunderground v.1.15,2013-07-02 07:40:00,
2013-07-02 03:45:00,81.1,72.8,29.88,NNE,14,10.0,14.0,76,0.00,,,0.00,Wunderground v.1.15,2013-07-02 07:45:00,
2013-07-02 03:55:00,81.2,73.3,29.88,NNE,20,8.0,14.0,77,0.00,,,0.00,Wunderground v.1.15,2013-07-02 07:55:00,
2013-07-02 04:00:00,81.1,72.8,29.88,NNE,19,8.0,14.0,76,0.00,,,0.00,Wunderground v.1.15,2013-07-02 08:00:00,
2013-07-02 04:05:00,81.1,73.2,29.88,NNE,19,7.0,14.0,77,0.00,,,0.00,Wunderground v.1.15,2013-07-02 08:05:00,
2013-07-02 04:15:00,81.2,73.7,29.88,NNE,15,8.0,14.0,78,0.00,,,0.00,Wunderground v.1.15,2013-07-02 08:15:00,
2013-07-02 04:20:00,81.1,73.6,29.88,NNE,13,9.0,14.0,78,0.00,,,0.00,Wunderground v.1.15,2013-07-02 08:20:00,
2013-07-02 04:25:00,80.6,73.1,29.88,North,5,9.0,14.0,78,0.00,,,0.00,Wunderground v.1.15,2013-07-02 08:25:00,
2013-07-02 04:35:00,80.5,73.4,29.88,North,9,9.0,11.0,79,0.00,,,0.00,Wunderground v.1.15,2013-07-02 08:35:00,
2013-07-02 04:40:00,80.4,72.9,29.88,NNE,17,9.0,9.0,78,0.00,,,0.00,Wunderground v.1.15,2013-07-02 08:40:00,
2013-07-02 04:50:00,80.4,73.3,29.88,NNE,18,10.0,10.0,79,0.00,,,0.00,Wunderground v.1.15,2013-07-02 08:50:00,
2013-07-02 04:55:00,80.3,72.8,29.89,NNE,16,10.0,14.0,78,0.00,,,0.00,Wunderground v.1.15,2013-07-02 08:55:00,
2013-07-02 05:05:00,80.4,72.9,29.89,North,5,10.0,14.0,78,0.00,,,0.00,Wunderground v.1.15,2013-07-02 09:05:00,
2013-07-02 05:10:00,80.2,72.3,29.89,North,5,6.0,14.0,77,0.00,,,0.00,Wunderground v.1.15,2013-07-02 09:10:00,
2013-07-02 05:20:00,79.6,72.1,29.90,NNW,328,2.0,2.0,78,0.00,,,0.00,Wunderground v.1.15,2013-07-02 09:20:00,
2013-07-02 05:25:00,79.4,71.9,29.90,NNE,16,4.0,6.0,78,0.00,,,0.00,Wunderground v.1.15,2013-07-02 09:25:00,
2013-07-02 05:30:00,79.4,72.3,29.90,North,355,6.0,6.0,79,0.00,,,0.00,Wunderground v.1.15,2013-07-02 09:30:00,
2013-07-02 05:40:00,79.3,72.6,29.90,North,11,8.0,8.0,80,0.00,,,0.00,Wunderground v.1.15,2013-07-02 09:40:00,
2013-07-02 05:45:00,79.4,72.7,29.90,North,5,7.0,14.0,80,0.00,,,0.00,Wunderground v.1.15,2013-07-02 09:45:00,
2013-07-02 05:50:00,79.4,73.1,29.90,North,360,6.0,14.0,81,0.00,,,0.00,Wunderground v.1.15,2013-07-02 09:50:00,
2013-07-02 06:00:00,79.0,72.7,29.90,North,5,6.0,14.0,81,0.00,,,0.00,Wunderground v.1.15,2013-07-02 10:00:00,
2013-07-02 06:05:00,79.0,72.7,29.90,NNE,17,8.0,14.0,81,0.00,,,0.00,Wunderground v.1.15,2013-07-02 10:05:00,
2013-07-02 06:15:00,78.8,73.2,29.91,North,10,8.0,14.0,83,0.00,,,0.00,Wunderground v.1.15,2013-07-02 10:15:00,
2013-07-02 06:20:00,78.6,73.0,29.90,North,5,7.0,14.0,83,0.00,,,0.00,Wunderground v.1.15,2013-07-02 10:20:00,
2013-07-02 06:25:00,78.4,73.2,29.91,NNE,15,8.0,14.0,84,0.00,,,0.00,Wunderground v.1.15,2013-07-02 10:25:00,
2013-07-02 06:35:00,78.3,73.1,29.91,North,360,9.0,14.0,84,0.00,,,0.00,Wunderground v.1.15,2013-07-02 10:35:00,
2013-07-02 06:40:00,78.1,72.9,29.92,North,10,7.0,14.0,84,0.00,,,0.00,Wunderground v.1.15,2013-07-02 10:40:00,
2013-07-02 06:50:00,77.9,73.0,29.92,North,11,7.0,14.0,85,0.00,,,0.00,Wunderground v.1.15,2013-07-02 10:50:00,
2013-07-02 06:55:00,77.8,72.9,29.92,North,11,7.0,14.0,85,0.00,,,0.00,Wunderground v.1.15,2013-07-02 10:55:00,
2013-07-02 07:05:00,78.0,73.1,29.92,NNE,25,8.0,14.0,85,0.00,,,0.00,Wunderground v.1.15,2013-07-02 11:05:00,
2013-07-02 07:10:00,78.2,73.7,29.92,NNE,16,8.0,14.0,86,0.00,,,0.00,Wunderground v.1.15,2013-07-02 11:10:00,
2013-07-02 07:15:00,78.4,73.9,29.92,NNE,24,9.0,14.0,86,0.00,,,0.00,Wunderground v.1.15,2013-07-02 11:15:00,
2013-07-02 07:25:00,78.6,74.1,29.92,NNE,30,10.0,14.0,86,0.00,,,0.00,Wunderground v.1.15,2013-07-02 11:25:00,
2013-07-02 07:30:00,78.8,74.3,29.92,NNE,30,10.0,14.0,86,0.00,,,0.00,Wunderground v.1.15,2013-07-02 11:30:00,
2013-07-02 07:40:00,79.3,74.4,29.92,NNE,21,11.0,14.0,85,0.00,,,0.00,Wunderground v.1.15,2013-07-02 11:40:00,
2013-07-02 07:50:00,79.6,75.0,29.93,North,9,8.0,14.0,86,0.00,,,0.00,Wunderground v.1.15,2013-07-02 11:50:00,
2013-07-02 07:55:00,79.6,75.0,29.93,North,5,8.0,14.0,86,0.00,,,0.00,Wunderground v.1.15,2013-07-02 11:55:00,
2013-07-02 08:05:00,79.3,74.7,29.93,NNE,19,8.0,14.0,86,0.00,,,0.00,Wunderground v.1.15,2013-07-02 12:05:00,
2013-07-02 08:10:00,79.6,75.0,29.93,NNE,18,8.0,14.0,86,0.00,,,0.00,Wunderground v.1.15,2013-07-02 12:10:00,
2013-07-02 08:20:00,79.8,75.2,29.93,NNE,17,9.0,9.0,86,0.00,,,0.00,Wunderground v.1.15,2013-07-02 12:20:00,
2013-07-02 08:25:00,79.8,75.2,29.94,NNE,20,9.0,14.0,86,0.00,,,0.00,Wunderground v.1.15,2013-07-02 12:25:00,
2013-07-02 08:35:00,79.9,75.3,29.94,North,10,9.0,14.0,86,0.00,,,0.00,Wunderground v.1.15,2013-07-02 12:35:00,
2013-07-02 08:40:00,79.6,75.4,29.94,NNE,22,8.0,8.0,87,0.00,,,0.00,Wunderground v.1.15,2013-07-02 12:40:00,
2013-07-02 08:50:00,78.9,74.4,29.95,NNE,22,9.0,14.0,86,0.00,,,0.00,Wunderground v.1.15,2013-07-02 12:50:00,
2013-07-02 08:55:00,78.8,74.6,29.95,NNE,15,9.0,14.0,87,0.00,,,0.00,Wunderground v.1.15,2013-07-02 12:55:00,
2013-07-02 09:00:00,78.8,74.6,29.95,North,5,10.0,10.0,87,0.00,,,0.00,Wunderground v.1.15,2013-07-02 13:00:00,
2013-07-02 09:10:00,79.1,74.9,29.95,NNE,22,9.0,14.0,87,0.00,,,0.00,Wunderground v.1.15,2013-07-02 13:10:00,
2013-07-02 09:15:00,79.1,74.9,29.96,North,9,9.0,14.0,87,0.00,,,0.00,Wunderground v.1.15,2013-07-02 13:15:00,
2013-07-02 09:25:00,79.2,74.6,29.96,NNE,17,9.0,14.0,86,0.00,,,0.00,Wunderground v.1.15,2013-07-02 13:25:00,
2013-07-02 09:30:00,79.3,74.7,29.96,NNE,19,8.0,14.0,86,0.00,,,0.00,Wunderground v.1.15,2013-07-02 13:30:00,
2013-07-02 09:35:00,79.3,74.7,29.96,NNE,17,9.0,14.0,86,0.00,,,0.00,Wunderground v.1.15,2013-07-02 13:35:00,
2013-07-02 09:45:00,79.2,74.6,29.96,NNE,13,10.0,11.0,86,0.00,,,0.00,Wunderground v.1.15,2013-07-02 13:45:00,
2013-07-02 09:50:00,79.2,74.3,29.96,NNE,20,10.0,14.0,85,0.00,,,0.00,Wunderground v.1.15,2013-07-02 13:50:00,
2013-07-02 09:55:00,79.2,74.3,29.96,NNE,24,10.0,14.0,85,0.00,,,0.00,Wunderground v.1.15,2013-07-02 13:55:00,
2013-07-02 10:05:00,79.7,73.0,29.96,NE,35,10.0,14.0,80,0.00,,,0.00,Wunderground v.1.15,2013-07-02 14:05:00,
2013-07-02 10:10:00,80.3,73.9,29.96,NNE,31,12.0,14.0,81,0.00,,,0.00,Wunderground v.1.15,2013-07-02 14:10:00,
2013-07-02 10:20:00,80.6,73.9,29.96,NNE,24,12.0,14.0,80,0.00,,,0.00,Wunderground v.1.15,2013-07-02 14:20:00,
2013-07-02 10:25:00,80.5,73.4,29.97,NE,37,12.0,14.0,79,0.00,,,0.00,Wunderground v.1.15,2013-07-02 14:25:00,
2013-07-02 10:35:00,80.5,73.8,29.97,NE,41,12.0,14.0,80,0.00,,,0.00,Wunderground v.1.15,2013-07-02 14:35:00,
2013-07-02 10:40:00,80.5,73.0,29.97,NNE,32,12.0,14.0,78,0.00,,,0.00,Wunderground v.1.15,2013-07-02 14:40:00,
2013-07-02 10:50:00,80.6,73.1,29.96,ENE,59,13.0,13.0,78,0.00,,,0.00,Wunderground v.1.15,2013-07-02 14:50:00,
2013-07-02 10:55:00,80.7,72.0,29.97,NE,40,13.0,14.0,75,0.00,,,0.00,Wunderground v.1.15,2013-07-02 14:55:00,
2013-07-02 11:00:00,80.7,72.8,29.97,NE,48,12.0,14.0,77,0.00,,,0.00,Wunderground v.1.15,2013-07-02 15:00:00,
2013-07-02 11:10:00,80.9,73.0,29.97,NE,44,12.0,14.0,77,0.00,,,0.00,Wunderground v.1.15,2013-07-02 15:10:00,
2013-07-02 11:15:00,80.9,73.4,29.97,NNE,29,12.0,14.0,78,0.00,,,0.00,Wunderground v.1.15,2013-07-02 15:15:00,
2013-07-02 11:20:00,80.9,72.6,29.97,NE,56,11.0,11.0,76,0.00,,,0.00,Wunderground v.1.15,2013-07-02 15:20:00,
2013-07-02 11:30:00,81.1,72.8,29.97,NE,42,11.0,11.0,76,0.00,,,0.00,Wunderground v.1.15,2013-07-02 15:30:00,
2013-07-02 11:35:00,81.1,73.2,29.97,NE,51,11.0,14.0,77,0.00,,,0.00,Wunderground v.1.15,2013-07-02 15:35:00,
2013-07-02 11:40:00,81.2,73.7,29.97,ENE,57,11.0,14.0,78,0.00,,,0.00,Wunderground v.1.15,2013-07-02 15:40:00,
2013-07-02 11:50:00,81.3,73.4,29.97,NE,38,11.0,11.0,77,0.00,,,0.00,Wunderground v.1.15,2013-07-02 15:50:00,
2013-07-02 11:55:00,81.4,73.5,29.97,NE,44,10.0,14.0,77,0.00,,,0.00,Wunderground v.1.15,2013-07-02 15:55:00,
2013-07-02 12:05:00,81.6,73.3,29.97,NE,35,10.0,11.0,76,0.00,,,0.00,Wunderground v.1.15,2013-07-02 16:05:00,
2013-07-02 12:10:00,81.7,73.8,29.97,NNE,33,9.0,14.0,77,0.00,,,0.00,Wunderground v.1.15,2013-07-02 16:10:00,
2013-07-02 12:20:00,81.8,73.1,29.97,NNE,25,9.0,14.0,75,0.00,,,0.00,Wunderground v.1.15,2013-07-02 16:20:00,
2013-07-02 12:25:00,81.8,73.5,29.97,NNE,26,9.0,14.0,76,0.00,,,0.00,Wunderground v.1.15,2013-07-02 16:25:00,
2013-07-02 12:35:00,81.9,73.6,29.97,NE,40,9.0,14.0,76,0.00,,,0.00,Wunderground v.1.15,2013-07-02 16:35:00,
2013-07-02 12:40:00,82.0,73.3,29.97,NE,45,9.0,9.0,75,0.00,,,0.00,Wunderground v.1.15,2013-07-02 16:40:00,
2013-07-02 12:45:00,81.9,72.8,29.98,NE,49,8.0,14.0,74,0.00,,,0.00,Wunderground v.1.15,2013-07-02 16:45:00,
2013-07-02 12:50:00,82.1,73.8,29.98,NE,52,8.0,14.0,76,0.00,,,0.00,Wunderground v.1.15,2013-07-02 16:50:00,
2013-07-02 13:00:00,82.2,73.1,29.97,NE,45,7.0,14.0,74,0.00,,,0.00,Wunderground v.1.15,2013-07-02 17:00:00,
2013-07-02 13:05:00,82.3,73.2,29.97,NE,41,8.0,14.0,74,0.00,,,0.00,Wunderground v.1.15,2013-07-02 17:05:00,
2013-07-02 13:10:00,82.5,73.8,29.97,NE,41,7.0,7.0,75,0.00,,,0.00,Wunderground v.1.15,2013-07-02 17:10:00,
2013-07-02 13:20:00,83.0,73.4,29.97,NE,42,6.0,6.0,73,0.00,,,0.00,Wunderground v.1.15,2013-07-02 17:20:00,
2013-07-02 13:25:00,83.1,73.1,29.97,NE,44,3.0,14.0,72,0.00,,,0.00,Wunderground v.1.15,2013-07-02 17:25:00,
2013-07-02 13:35:00,83.7,72.4,29.97,South,189,0.0,14.0,69,0.00,,,0.00,Wunderground v.1.15,2013-07-02 17:35:00,
2013-07-02 13:40:00,84.9,72.7,29.97,SW,227,0.0,14.0,67,0.00,,,0.00,Wunderground v.1.15,2013-07-02 17:40:00,
2013-07-02 13:50:00,86.2,73.0,29.97,South,173,3.0,3.0,65,0.00,,,0.00,Wunderground v.1.15,2013-07-02 17:50:00,
2013-07-02 13:55:00,86.1,73.9,29.97,SSE,165,4.0,4.0,67,0.00,,,0.00,Wunderground v.1.15,2013-07-02 17:55:00,
2013-07-02 14:00:00,86.6,73.9,29.97,SSW,210,4.0,14.0,66,0.00,,,0.00,Wunderground v.1.15,2013-07-02 18:00:00,
2013-07-02 14:10:00,86.3,73.1,29.97,South,191,5.0,14.0,65,0.00,,,0.00,Wunderground v.1.15,2013-07-02 18:10:00,
2013-07-02 14:15:00,86.2,73.5,29.97,SSW,200,5.0,14.0,66,0.00,,,0.00,Wunderground v.1.15,2013-07-02 18:15:00,
2013-07-02 14:25:00,86.5,73.3,29.96,South,180,3.0,14.0,65,0.00,,,0.00,Wunderground v.1.15,2013-07-02 18:25:00,
2013-07-02 14:30:00,86.7,74.4,29.96,South,173,1.0,1.0,67,0.00,,,0.00,Wunderground v.1.15,2013-07-02 18:30:00,
2013-07-02 14:35:00,86.6,73.9,29.96,South,172,2.0,4.0,66,0.00,,,0.00,Wunderground v.1.15,2013-07-02 18:35:00,
2013-07-02 14:40:00,86.2,73.5,29.96,South,172,4.0,14.0,66,0.00,,,0.00,Wunderground v.1.15,2013-07-02 18:40:00,
2013-07-02 14:50:00,86.6,73.9,29.96,South,175,5.0,14.0,66,0.00,,,0.00,Wunderground v.1.15,2013-07-02 18:50:00,
2013-07-02 14:55:00,86.8,74.1,29.96,South,173,6.0,14.0,66,0.00,,,0.00,Wunderground v.1.15,2013-07-02 18:55:00,
2013-07-02 15:05:00,86.8,74.5,29.96,SSW,192,5.0,14.0,67,0.00,,,0.00,Wunderground v.1.15,2013-07-02 19:05:00,
2013-07-02 15:10:00,86.7,73.5,29.96,SSE,159,5.0,14.0,65,0.00,,,0.00,Wunderground v.1.15,2013-07-02 19:10:00,
2013-07-02 15:20:00,86.6,75.2,29.96,South,191,6.0,6.0,69,0.00,,,0.00,Wunderground v.1.15,2013-07-02 19:20:00,
2013-07-02 15:25:00,86.5,75.1,29.95,SW,215,6.0,14.0,69,0.00,,,0.00,Wunderground v.1.15,2013-07-02 19:25:00,
2013-07-02 15:30:00,86.5,75.5,29.95,South,187,6.0,6.0,70,0.00,,,0.00,Wunderground v.1.15,2013-07-02 19:30:00,
2013-07-02 15:35:00,86.4,75.5,29.95,South,173,6.0,14.0,70,0.00,,,0.00,Wunderground v.1.15,2013-07-02 19:35:00,
2013-07-02 15:40:00,86.9,75.1,29.95,SSW,195,6.0,6.0,68,0.00,,,0.00,Wunderground v.1.15,2013-07-02 19:40:00,
2013-07-02 15:50:00,87.0,75.2,29.95,SSE,165,7.0,7.0,68,0.00,,,0.00,Wunderground v.1.15,2013-07-02 19:50:00,
2013-07-02 15:55:00,86.8,75.4,29.95,SSW,208,6.0,14.0,69,0.00,,,0.00,Wunderground v.1.15,2013-07-02 19:55:00,
2013-07-02 16:05:00,86.8,75.4,29.95,South,184,6.0,14.0,69,0.00,,,0.00,Wunderground v.1.15,2013-07-02 20:05:00,
2013-07-02 16:10:00,86.6,74.3,29.95,South,175,6.0,6.0,67,0.00,,,0.00,Wunderground v.1.15,2013-07-02 20:10:00,
2013-07-02 16:20:00,86.4,75.0,29.94,South,191,7.0,14.0,69,0.00,,,0.00,Wunderground v.1.15,2013-07-02 20:20:00,
2013-07-02 16:25:00,86.4,75.0,29.94,South,180,7.0,14.0,69,0.00,,,0.00,Wunderground v.1.15,2013-07-02 20:25:00,
2013-07-02 16:30:00,86.5,75.1,29.94,South,187,6.0,14.0,69,0.00,,,0.00,Wunderground v.1.15,2013-07-02 20:30:00,
2013-07-02 16:35:00,86.8,75.0,29.94,SSW,195,5.0,14.0,68,0.00,,,0.00,Wunderground v.1.15,2013-07-02 20:35:00,
2013-07-02 16:45:00,86.8,74.1,29.94,SSW,194,7.0,14.0,66,0.00,,,0.00,Wunderground v.1.15,2013-07-02 20:45:00,
2013-07-02 16:50:00,86.8,75.0,29.94,SSW,193,7.0,14.0,68,0.00,,,0.00,Wunderground v.1.15,2013-07-02 20:50:00,
2013-07-02 16:55:00,87.0,75.6,29.95,SSW,213,8.0,14.0,69,0.00,,,0.00,Wunderground v.1.15,2013-07-02 20:55:00,
2013-07-02 17:05:00,86.7,74.9,29.94,SSW,207,8.0,14.0,68,0.00,,,0.00,Wunderground v.1.15,2013-07-02 21:05:00,
2013-07-02 17:10:00,86.2,74.0,29.94,South,190,8.0,8.0,67,0.00,,,0.00,Wunderground v.1.15,2013-07-02 21:10:00,
2013-07-02 17:20:00,86.1,74.3,29.94,South,169,7.0,7.0,68,0.00,,,0.00,Wunderground v.1.15,2013-07-02 21:20:00,
2013-07-02 17:25:00,86.3,73.6,29.93,South,187,7.0,8.0,66,0.00,,,0.00,Wunderground v.1.15,2013-07-02 21:25:00,
2013-07-02 17:35:00,85.9,74.1,29.93,SSW,200,8.0,14.0,68,0.00,,,0.00,Wunderground v.1.15,2013-07-02 21:35:00,
2013-07-02 17:40:00,85.8,74.0,29.93,SSW,204,8.0,8.0,68,0.00,,,0.00,Wunderground v.1.15,2013-07-02 21:40:00,
2013-07-02 17:50:00,85.8,73.1,29.93,South,184,6.0,6.0,66,0.00,,,0.00,Wunderground v.1.15,2013-07-02 21:50:00,
2013-07-02 17:55:00,85.9,72.8,29.93,South,182,6.0,7.0,65,0.00,,,0.00,Wunderground v.1.15,2013-07-02 21:55:00,
2013-07-02 18:00:00,85.9,73.7,29.93,SSW,198,6.0,14.0,67,0.00,,,0.00,Wunderground v.1.15,2013-07-02 22:00:00,
2013-07-02 18:10:00,85.5,73.3,29.93,South,181,8.0,14.0,67,0.00,,,0.00,Wunderground v.1.15,2013-07-02 22:10:00,
2013-07-02 18:15:00,85.4,72.7,29.93,South,174,7.0,14.0,66,0.00,,,0.00,Wunderground v.1.15,2013-07-02 22:15:00,
2013-07-02 18:20:00,85.3,72.6,29.93,South,189,7.0,14.0,66,0.00,,,0.00,Wunderground v.1.15,2013-07-02 22:20:00,
2013-07-02 18:25:00,85.4,73.6,29.93,South,188,7.0,14.0,68,0.00,,,0.00,Wunderground v.1.15,2013-07-02 22:25:00,
2013-07-02 18:35:00,85.3,73.5,29.93,South,180,7.0,14.0,68,0.00,,,0.00,Wunderground v.1.15,2013-07-02 22:35:00,
2013-07-02 18:40:00,85.4,73.2,29.93,South,171,8.0,8.0,67,0.00,,,0.00,Wunderground v.1.15,2013-07-02 22:40:00,
2013-07-02 18:50:00,85.3,74.0,29.93,South,189,8.0,14.0,69,0.00,,,0.00,Wunderground v.1.15,2013-07-02 22:50:00,
2013-07-02 18:55:00,85.2,73.4,29.93,SSE,153,8.0,14.0,68,0.00,,,0.00,Wunderground v.1.15,2013-07-02 22:55:00,
2013-07-02 19:05:00,85.2,73.4,29.93,South,178,7.0,14.0,68,0.00,,,0.00,Wunderground v.1.15,2013-07-02 23:05:00,
2013-07-02 19:10:00,85.3,73.5,29.94,South,182,8.0,14.0,68,0.00,,,0.00,Wunderground v.1.15,2013-07-02 23:10:00,
2013-07-02 19:20:00,84.7,72.5,29.94,South,172,8.0,8.0,67,0.00,,,0.00,Wunderground v.1.15,2013-07-02 23:20:00,
2013-07-02 19:25:00,84.6,72.9,29.94,South,184,8.0,9.0,68,0.00,,,0.00,Wunderground v.1.15,2013-07-02 23:25:00,
2013-07-02 19:35:00,84.3,72.6,29.94,SSW,199,6.0,14.0,68,0.00,,,0.00,Wunderground v.1.15,2013-07-02 23:35:00,
2013-07-02 19:40:00,84.1,72.8,29.95,South,190,5.0,14.0,69,0.00,,,0.00,Wunderground v.1.15,2013-07-02 23:40:00,
2013-07-02 19:45:00,84.1,72.8,29.95,South,186,5.0,14.0,69,0.00,,,0.00,Wunderground v.1.15,2013-07-02 23:45:00,
2013-07-02 19:50:00,84.0,73.2,29.95,South,189,6.0,6.0,70,0.00,,,0.00,Wunderground v.1.15,2013-07-02 23:50:00,
2013-07-02 20:00:00,83.6,72.3,29.96,South,189,6.0,14.0,69,0.00,,,0.00,Wunderground v.1.15,2013-07-03 00:00:00,
2013-07-02 20:05:00,83.6,72.3,29.96,SSW,205,6.0,14.0,69,0.00,,,0.00,Wunderground v.1.15,2013-07-03 00:05:00,
2013-07-02 20:10:00,83.6,72.8,29.96,South,186,6.0,6.0,70,0.00,,,0.00,Wunderground v.1.15,2013-07-03 00:10:00,
2013-07-02 20:15:00,83.6,73.2,29.97,South,181,5.0,14.0,71,0.00,,,0.00,Wunderground v.1.15,2013-07-03 00:15:00,
2013-07-02 20:20:00,83.5,73.1,29.97,South,177,3.0,3.0,71,0.00,,,0.00,Wunderground v.1.15,2013-07-03 00:20:00,
2013-07-02 20:25:00,83.2,72.8,29.97,South,188,2.0,5.0,71,0.00,,,0.00,Wunderground v.1.15,2013-07-03 00:25:00,
2013-07-02 20:35:00,83.0,72.2,29.97,South,182,5.0,14.0,70,0.00,,,0.00,Wunderground v.1.15,2013-07-03 00:35:00,
2013-07-02 20:40:00,82.8,72.4,29.97,South,184,4.0,4.0,71,0.00,,,0.00,Wunderground v.1.15,2013-07-03 00:40:00,
2013-07-02 20:50:00,82.6,72.2,29.97,South,176,0.0,14.0,71,0.00,,,0.00,Wunderground v.1.15,2013-07-03 00:50:00,
2013-07-02 20:55:00,82.5,72.1,29.97,SSW,194,0.0,14.0,71,0.00,,,0.00,Wunderground v.1.15,2013-07-03 00:55:00,
2013-07-02 21:00:00,82.4,72.5,29.97,South,188,0.0,14.0,72,0.00,,,0.00,Wunderground v.1.15,2013-07-03 01:00:00,
2013-07-02 21:10:00,82.2,71.9,29.97,South,190,0.0,14.0,71,0.00,,,0.00,Wunderground v.1.15,2013-07-03 01:10:00,
2013-07-02 21:15:00,82.1,72.2,29.97,SSW,195,0.0,14.0,72,0.00,,,0.00,Wunderground v.1.15,2013-07-03 01:15:00,
2013-07-02 21:20:00,82.1,72.2,29.97,SSW,192,0.0,14.0,72,0.00,,,0.00,Wunderground v.1.15,2013-07-03 01:20:00,
2013-07-02 21:25:00,82.0,72.5,29.97,SSW,192,0.0,14.0,73,0.00,,,0.00,Wunderground v.1.15,2013-07-03 01:25:00,
2013-07-02 21:30:00,82.0,72.5,29.97,SSW,192,0.0,14.0,73,0.00,,,0.00,Wunderground v.1.15,2013-07-03 01:30:00,
2013-07-02 21:35:00,81.9,72.4,29.97,South,176,0.0,14.0,73,0.00,,,0.00,Wunderground v.1.15,2013-07-03 01:35:00,
2013-07-02 21:40:00,82.0,71.7,29.97,South,176,0.0,14.0,71,0.00,,,0.00,Wunderground v.1.15,2013-07-03 01:40:00,
2013-07-02 21:50:00,82.3,72.0,29.97,SSE,166,0.0,14.0,71,0.00,,,0.00,Wunderground v.1.15,2013-07-03 01:50:00,
2013-07-02 21:55:00,82.5,72.1,29.97,SSE,165,1.0,14.0,71,0.00,,,0.00,Wunderground v.1.15,2013-07-03 01:55:00,
2013-07-02 22:00:00,82.6,72.2,29.97,SSE,164,2.0,2.0,71,0.00,,,0.00,Wunderground v.1.15,2013-07-03 02:00:00,
2013-07-02 22:05:00,82.6,71.8,29.97,South,178,1.0,14.0,70,0.00,,,0.00,Wunderground v.1.15,2013-07-03 02:05:00,
2013-07-02 22:10:00,82.6,71.8,29.97,South,178,0.0,14.0,70,0.00,,,0.00,Wunderground v.1.15,2013-07-03 02:10:00,
2013-07-02 22:20:00,82.7,72.3,29.97,SE,140,0.0,14.0,71,0.00,,,0.00,Wunderground v.1.15,2013-07-03 02:20:00,
2013-07-02 22:25:00,82.8,72.0,29.97,SSE,153,0.0,14.0,70,0.00,,,0.00,Wunderground v.1.15,2013-07-03 02:25:00,
2013-07-02 22:30:00,82.7,71.9,29.97,SSE,155,0.0,14.0,70,0.00,,,0.00,Wunderground v.1.15,2013-07-03 02:30:00,
2013-07-02 22:35:00,82.6,72.2,29.98,SSE,150,1.0,14.0,71,0.00,,,0.00,Wunderground v.1.15,2013-07-03 02:35:00,
2013-07-02 22:40:00,82.5,71.7,29.98,SSE,162,3.0,3.0,70,0.00,,,0.00,Wunderground v.1.15,2013-07-03 02:40:00,
2013-07-02 22:45:00,82.6,71.8,29.98,SSE,162,1.0,14.0,70,0.00,,,0.00,Wunderground v.1.15,2013-07-03 02:45:00,
2013-07-02 22:55:00,82.5,71.3,29.98,SSE,161,0.0,14.0,69,0.00,,,0.00,Wunderground v.1.15,2013-07-03 02:55:00,
2013-07-02 23:05:00,82.3,71.5,29.99,South,169,0.0,14.0,70,0.00,,,0.00,Wunderground v.1.15,2013-07-03 03:05:00,
2013-07-02 23:15:00,82.1,71.3,29.99,South,169,0.0,14.0,70,0.00,,,0.00,Wunderground v.1.15,2013-07-03 03:15:00,
2013-07-02 23:21:00,82.1,71.3,29.99,South,169,0.0,14.0,70,0.00,,,0.00,Wunderground v.1.15,2013-07-03 03:21:00,
2013-07-02 23:30:00,82.5,71.3,29.99,South,170,0.0,14.0,69,0.00,,,0.00,Wunderground v.1.15,2013-07-03 03:30:00,
2013-07-02 23:35:00,82.6,71.8,29.99,South,169,0.0,14.0,70,0.00,,,0.00,Wunderground v.1.15,2013-07-03 03:35:00,
2013-07-02 23:40:00,82.6,71.8,29.99,South,169,0.0,14.0,70,0.00,,,0.00,Wunderground v.1.15,2013-07-03 03:40:00,
2013-07-02 23:50:00,82.7,71.5,29.99,South,171,0.0,14.0,69,0.00,,,0.00,Wunderground v.1.15,2013-07-03 03:50:00,
2013-07-02 23:55:00,82.7,71.5,29.99,South,171,0.0,14.0,69,0.00,,,0.00,Wunderground v.1.15,2013-07-03 03:55:00,